�������C�����ː����j�^�v���󋵏��
Date,Time,Cs137(Bq/L),Cs134(Bq/L),�S��(Bq/L)
2020/02/14,00:00,0.049,ND,23
2020/02/14,00:10,0.054,ND,26
2020/02/14,00:20,ND,ND,22
2020/02/14,00:30,ND,ND,24
2020/02/14,00:40,ND,ND,20
2020/02/14,00:50,ND,ND,17
2020/02/14,01:00,ND,ND,19
2020/02/14,01:10,ND,ND,17
2020/02/14,01:20,ND,ND,16
2020/02/14,01:30,0.052,ND,14
2020/02/14,01:40,0.073,ND,16
2020/02/14,01:50,0.073,ND,17
2020/02/14,02:00,0.061,ND,16
2020/02/14,02:10,ND,ND,16
2020/02/14,02:20,ND,ND,16
2020/02/14,02:30,ND,ND,19
2020/02/14,02:40,ND,ND,20
2020/02/14,02:50,ND,ND,19
2020/02/14,03:00,ND,ND,19
2020/02/14,03:10,ND,ND,19
2020/02/14,03:20,ND,ND,17
2020/02/14,03:30,ND,ND,16
2020/02/14,03:40,ND,ND,14
2020/02/14,03:50,ND,ND,16
2020/02/14,04:00,ND,ND,16
2020/02/14,04:10,ND,ND,16
2020/02/14,04:20,ND,ND,16
2020/02/14,04:30,ND,ND,16
2020/02/14,04:40,0.063,ND,17
2020/02/14,04:50,ND,ND,17
2020/02/14,05:00,ND,ND,18
2020/02/14,05:10,ND,ND,17
2020/02/14,05:20,0.051,ND,22
2020/02/14,05:30,0.060,ND,21
2020/02/14,05:40,0.074,ND,20
2020/02/14,05:50,0.086,ND,21
2020/02/14,06:00,0.076,ND,21
2020/02/14,06:10,0.081,ND,20
2020/02/14,06:20,0.095,ND,16
2020/02/14,06:30,0.091,ND,17
2020/02/14,06:40,0.10,ND,16
2020/02/14,06:50,0.10,ND,14
2020/02/14,07:00,0.11,ND,14
2020/02/14,07:10,0.11,ND,16
2020/02/14,07:20,0.11,ND,17
2020/02/14,07:30,0.088,ND,19
2020/02/14,07:40,0.064,ND,20
2020/02/14,07:50,0.058,ND,22
2020/02/14,08:00,0.065,ND,24
2020/02/14,08:10,ND,ND,22
2020/02/14,08:20,ND,ND,21
2020/02/14,08:30,ND,ND,19
2020/02/14,08:40,0.055,ND,18
2020/02/14,08:50,0.073,ND,20
2020/02/14,09:00,0.073,ND,18
2020/02/14,09:10,0.079,ND,18
2020/02/14,09:20,0.082,ND,17
2020/02/14,09:30,0.083,ND,16
2020/02/14,09:40,0.074,ND,14
2020/02/14,09:50,0.051,ND,13
2020/02/14,10:00,0.053,ND,14
2020/02/14,10:10,0.060,ND,14
2020/02/14,10:20,0.059,ND,15
2020/02/14,10:30,0.049,ND,16
2020/02/14,10:40,0.061,ND,17
2020/02/14,10:50,0.082,ND,16
2020/02/14,11:00,0.071,ND,16
2020/02/14,11:10,0.051,ND,18
2020/02/14,11:20,0.050,ND,17
2020/02/14,11:30,0.066,ND,18
2020/02/14,11:40,0.063,ND,16
2020/02/14,11:50,0.056,ND,17
2020/02/14,12:00,0.061,ND,17
2020/02/14,12:10,0.076,ND,16
2020/02/14,12:20,0.076,ND,14
2020/02/14,12:30,0.078,ND,13
2020/02/14,12:40,0.073,ND,14
2020/02/14,12:50,0.067,ND,16
2020/02/14,13:00,0.062,ND,15
2020/02/14,13:10,0.060,ND,16
2020/02/14,13:20,0.068,ND,17
2020/02/14,13:30,0.062,ND,19
2020/02/14,13:40,0.068,ND,20
2020/02/14,13:50,0.065,ND,19
2020/02/14,14:00,0.067,ND,20
2020/02/14,14:10,0.084,ND,22
2020/02/14,14:20,0.095,ND,22
2020/02/14,14:30,0.095,ND,22
2020/02/14,14:40,0.081,ND,22
2020/02/14,14:50,0.070,ND,22
2020/02/14,15:00,0.068,ND,22
2020/02/14,15:10,0.052,ND,22
2020/02/14,15:20,0.055,ND,21
2020/02/14,15:30,0.055,ND,20
2020/02/14,15:40,0.068,ND,19
2020/02/14,15:50,0.056,ND,21
2020/02/14,16:00,0.066,ND,20
2020/02/14,16:10,0.070,ND,20
2020/02/14,16:20,0.060,ND,19
2020/02/14,16:30,0.082,ND,19
2020/02/14,16:40,0.085,ND,18
2020/02/14,16:50,0.12,ND,16
2020/02/14,17:00,0.11,ND,18
2020/02/14,17:10,0.11,ND,15
2020/02/14,17:20,0.11,ND,15
2020/02/14,17:30,0.084,ND,15
2020/02/14,17:40,0.078,ND,15
2020/02/14,17:50,0.075,ND,17
2020/02/14,18:00,0.090,ND,16
2020/02/14,18:10,0.084,ND,20
2020/02/14,18:20,0.093,ND,18
2020/02/14,18:30,0.11,ND,20
2020/02/14,18:40,0.13,ND,20
2020/02/14,18:50,0.12,ND,19
2020/02/14,19:00,0.12,ND,19
2020/02/14,19:10,0.13,ND,18
2020/02/14,19:20,0.12,ND,21
2020/02/14,19:30,0.11,ND,19
2020/02/14,19:40,0.11,ND,22
2020/02/14,19:50,0.12,ND,23
2020/02/14,20:00,0.11,ND,23
2020/02/14,20:10,0.092,ND,21
2020/02/14,20:20,0.086,ND,22
2020/02/14,20:30,0.081,ND,21
2020/02/14,20:40,0.072,ND,21
2020/02/14,20:50,0.061,ND,19
2020/02/14,21:00,0.064,ND,21
2020/02/14,21:10,0.073,ND,22
2020/02/14,21:20,0.070,ND,22
2020/02/14,21:30,0.080,ND,22
2020/02/14,21:40,0.076,ND,18
2020/02/14,21:50,0.086,ND,19
2020/02/14,22:00,0.095,ND,17
2020/02/14,22:10,0.10,ND,17
2020/02/14,22:20,0.096,ND,17
2020/02/14,22:30,0.10,ND,20
2020/02/14,22:40,0.11,ND,22
2020/02/14,22:50,0.13,ND,20
2020/02/14,23:00,0.12,ND,20
2020/02/14,23:10,0.086,ND,21
2020/02/14,23:20,0.093,ND,19
2020/02/14,23:30,0.084,ND,19
2020/02/14,23:40,0.091,ND,19
2020/02/14,23:50,0.11,ND,21
